| time (UTC) | temp C | wind direction | speed KPH | gust KPH | rain 1hr cm | rain 24hr cm | rain mn cm | humidity % | barometer mb |
| 20260502231812 | 13 | 65 | 0.0 | 0.0 | 0.00 | 0.00 | 0.00 | 68 | 1019.7 |
| 20260502231653 | 12 | 65 | 0.0 | 0.0 | 0.00 | 0.00 | 0.00 | 69 | 1019.7 |
| 20260502230631 | 13 | 65 | 0.0 | 0.0 | 0.00 | 0.00 | 0.00 | 67 | 1019.6 |
| 20260502230129 | 13 | 65 | 0.0 | 0.0 | 0.00 | 0.00 | 0.00 | 66 | 1019.7 |
| 20260502225629 | 13 | 65 | 0.0 | 0.0 | 0.00 | 0.00 | 0.00 | 67 | 1019.7 |
| 20260502225132 | 13 | 65 | 0.0 | 0.0 | 0.00 | 0.00 | 0.00 | 65 | 1019.7 |
| 20260502224629 | 13 | 65 | 0.0 | 0.0 | 0.00 | 0.00 | 0.00 | 65 | 1019.6 |
| 20260502224129 | 13 | 65 | 0.0 | 0.0 | 0.00 | 0.00 | 0.00 | 65 | 1019.7 |
| 20260502223815 | 14 | 65 | 0.0 | 0.0 | 0.00 | 0.00 | 0.00 | 65 | 1019.8 |
| 20260502223651 | 13 | 65 | 0.0 | 0.0 | 0.00 | 0.00 | 0.00 | 65 | 1019.8 |
| 20260502222625 | 14 | 65 | 0.0 | 0.0 | 0.00 | 0.00 | 0.00 | 64 | 1019.7 |
| 20260502222128 | 14 | 65 | 0.0 | 0.0 | 0.00 | 0.00 | 0.00 | 64 | 1019.8 |
| 20260502221628 | 14 | 65 | 0.0 | 0.0 | 0.00 | 0.00 | 0.00 | 64 | 1019.8 |
| 20260502221124 | 14 | 65 | 0.0 | 0.0 | 0.00 | 0.00 | 0.00 | 64 | 1019.8 |
| 20260502220624 | 14 | 65 | 0.0 | 0.0 | 0.00 | 0.00 | 0.00 | 64 | 1019.8 |
| 20260502220123 | 14 | 65 | 0.0 | 0.0 | 0.00 | 0.00 | 0.00 | 64 | 1019.9 |
| 20260502215756 | 14 | 65 | 0.0 | 0.0 | 0.00 | 0.00 | 0.00 | 65 | 1019.9 |
| 20260502215642 | 14 | 65 | 0.0 | 0.0 | 0.00 | 0.00 | 0.00 | 65 | 1019.9 |
| 20260502214616 | 13 | 65 | 0.0 | 0.0 | 0.00 | 0.00 | 0.00 | 65 | 1019.8 |
| 20260502214247 | 14 | 65 | 0.0 | 0.0 | 0.00 | 0.00 | 0.00 | 65 | 1019.9 |
| 20260502214137 | 14 | 65 | 0.0 | 0.0 | 0.00 | 0.00 | 0.00 | 66 | 1019.9 |
| 20260502213115 | 14 | 65 | 0.0 | 0.0 | 0.00 | 0.00 | 0.00 | 66 | 1019.9 |
| 20260502212612 | 14 | 65 | 0.0 | 0.0 | 0.00 | 0.00 | 0.00 | 67 | 1019.9 |
| 20260502212109 | 14 | 65 | 0.0 | 0.0 | 0.00 | 0.00 | 0.00 | 65 | 1019.9 |
| 20260502211609 | 14 | 65 | 0.0 | 0.0 | 0.00 | 0.00 | 0.00 | 65 | 1019.9 |
| 20260502211216 | 15 | 65 | 0.0 | 0.0 | 0.00 | 0.00 | 0.00 | 67 | 1020.0 |
| 20260502211153 | 14 | 65 | 0.0 | 0.0 | 0.00 | 0.00 | 0.00 | 66 | 1019.9 |
| 20260502211109 | 14 | 65 | 0.0 | 0.0 | 0.00 | 0.00 | 0.00 | 64 | 1019.9 |
| 20260502210741 | 14 | 65 | 0.0 | 0.0 | 0.00 | 0.00 | 0.00 | 65 | 1019.9 |
| 20260502205634 | 14 | 65 | 0.0 | 0.0 | 0.00 | 0.00 | 0.00 | 68 | 1019.9 |
| 20260502204605 | 15 | 65 | 0.0 | 0.0 | 0.00 | 0.00 | 0.00 | 65 | 1020.0 |
| 20260502204411 | 15 | 65 | 0.0 | 0.0 | 0.00 | 0.00 | 0.00 | 62 | 1020.1 |
| 20260502204348 | 16 | 65 | 0.0 | 0.0 | 0.00 | 0.00 | 0.00 | 60 | 1020.0 |
| 20260502204151 | 15 | 65 | 0.0 | 0.0 | 0.00 | 0.00 | 0.00 | 65 | 1020.1 |
| 20260502202747 | 16 | 65 | 0.0 | 0.0 | 0.00 | 0.00 | 0.00 | 56 | 1020.0 |
| 20260502202627 | 16 | 65 | 0.0 | 0.0 | 0.00 | 0.00 | 0.00 | 59 | 1020.0 |
| 20260502201602 | 17 | 65 | 0.0 | 0.0 | 0.00 | 0.00 | 0.00 | 54 | 1020.0 |
| 20260502201100 | 17 | 96 | 0.0 | 4.8 | 0.00 | 0.00 | 0.00 | 52 | 1020.0 |
| 20260502200758 | 17 | 106 | 0.0 | 0.0 | 0.00 | 0.00 | 0.00 | 53 | 1020.1 |
| 20260502200629 | 17 | 94 | 0.0 | 4.8 | 0.00 | 0.00 | 0.00 | 53 | 1020.0 |
| 20260502195727 | 17 | 121 | 0.0 | 0.0 | 0.00 | 0.00 | 0.00 | 53 | 1020.1 |
| 20260502195614 | 17 | 106 | 0.0 | 0.0 | 0.00 | 0.00 | 0.00 | 54 | 1020.0 |
| 20260502194739 | 17 | 221 | 0.0 | 4.8 | 0.00 | 0.00 | 0.00 | 51 | 1019.9 |
| 20260502194614 | 17 | 89 | 0.0 | 0.0 | 0.00 | 0.00 | 0.00 | 52 | 1019.9 |
| 20260502193546 | 17 | 223 | 1.6 | 4.8 | 0.00 | 0.00 | 0.00 | 52 | 1019.8 |
| 20260502193040 | 17 | 223 | 0.0 | 1.6 | 0.00 | 0.00 | 0.00 | 52 | 1019.8 |
| 20260502192539 | 17 | 233 | 0.0 | 1.6 | 0.00 | 0.00 | 0.00 | 52 | 1019.8 |
| 20260502192038 | 17 | 235 | 0.0 | 0.0 | 0.00 | 0.00 | 0.00 | 51 | 1019.9 |
| 20260502191801 | 17 | 238 | 0.0 | 0.0 | 0.00 | 0.00 | 0.00 | 51 | 1019.8 |
| 20260502191606 | 17 | 238 | 0.0 | 0.0 | 0.00 | 0.00 | 0.00 | 50 | 1019.8 |
| 20260502190735 | 17 | 240 | 0.0 | 0.0 | 0.00 | 0.00 | 0.00 | 51 | 1019.7 |
| 20260502190608 | 17 | 240 | 0.0 | 0.0 | 0.00 | 0.00 | 0.00 | 51 | 1019.7 |
| 20260502185534 | 18 | 240 | 0.0 | 0.0 | 0.00 | 0.00 | 0.00 | 51 | 1019.7 |
| 20260502185032 | 18 | 240 | 0.0 | 0.0 | 0.00 | 0.00 | 0.00 | 50 | 1019.7 |
| 20260502184532 | 18 | 240 | 0.0 | 0.0 | 0.00 | 0.00 | 0.00 | 49 | 1019.5 |
| 20260502184034 | 18 | 235 | 0.0 | 0.0 | 0.00 | 0.00 | 0.00 | 48 | 1019.4 |
| 20260502183533 | 19 | 234 | 0.0 | 1.6 | 0.00 | 0.00 | 0.00 | 47 | 1019.5 |
| 20260502183032 | 19 | 202 | 0.0 | 1.6 | 0.00 | 0.00 | 0.00 | 46 | 1019.4 |
| 20260502182533 | 19 | 200 | 0.0 | 0.0 | 0.00 | 0.00 | 0.00 | 45 | 1019.3 |
| 20260502182033 | 20 | 188 | 0.0 | 1.6 | 0.00 | 0.00 | 0.00 | 45 | 1019.2 |
| 20260502181535 | 20 | 210 | 0.0 | 1.6 | 0.00 | 0.00 | 0.00 | 45 | 1019.2 |
| 20260502181034 | 20 | 195 | 0.0 | 0.0 | 0.00 | 0.00 | 0.00 | 44 | 1019.2 |
| 20260502180530 | 20 | 212 | 0.0 | 0.0 | 0.00 | 0.00 | 0.00 | 44 | 1019.1 |
| 20260502164149 | 22 | 248 | 0.0 | 1.6 | 0.00 | 0.00 | 0.00 | 36 | 1019.1 |
| 20260502164024 | 22 | 173 | 0.0 | 6.4 | 0.00 | 0.00 | 0.00 | 35 | 1019.0 |
| 20260502162920 | 23 | 216 | 0.0 | 3.2 | 0.00 | 0.00 | 0.00 | 34 | 1019.1 |
| 20260502162451 | 22 | 200 | 1.6 | 11.3 | 0.00 | 0.00 | 0.00 | 36 | 1019.2 |
| 20260502162156 | 22 | 213 | 0.0 | 17.7 | 0.00 | 0.00 | 0.00 | 35 | 1019.2 |
| 20260502161559 | 22 | 223 | 1.6 | 17.7 | 0.00 | 0.00 | 0.00 | 35 | 1019.1 |
| 20260502160532 | 23 | 199 | 0.0 | 17.7 | 0.00 | 0.00 | 0.00 | 35 | 1019.2 |
| 20260502152255 | 23 | 220 | 8.0 | 22.5 | 0.00 | 0.00 | 0.00 | 34 | 1019.6 |
| 20260502151525 | 23 | 190 | 1.6 | 20.9 | 0.00 | 0.00 | 0.00 | 34 | 1019.7 |
| 20260502151025 | 23 | 212 | 0.0 | 19.3 | 0.00 | 0.00 | 0.00 | 34 | 1019.7 |
| 20260502150523 | 23 | 192 | 3.2 | 19.3 | 0.00 | 0.00 | 0.00 | 34 | 1019.7 |
| 20260502130503 | 22 | 230 | 4.8 | 14.5 | 0.00 | 0.00 | 0.00 | 35 | 1021.0 |
| 20260502123448 | 22 | 234 | 6.4 | 17.7 | 0.00 | 0.00 | 0.00 | 36 | 1021.4 |
| 20260502123310 | 21 | 190 | 1.6 | 9.7 | 0.00 | 0.00 | 0.00 | 36 | 1021.6 |
| 20260502123042 | 22 | 209 | 1.6 | 9.7 | 0.00 | 0.00 | 0.00 | 34 | 1021.5 |
| 20260502122508 | 22 | 188 | 0.0 | 9.7 | 0.00 | 0.00 | 0.00 | 35 | 1021.5 |
| 20260502121446 | 21 | 231 | 0.0 | 4.8 | 0.00 | 0.00 | 0.00 | 36 | 1021.7 |
| 20260502120943 | 21 | 193 | 0.0 | 6.4 | 0.00 | 0.00 | 0.00 | 36 | 1021.8 |
| 20260502120631 | 21 | 248 | 0.0 | 14.5 | 0.00 | 0.00 | 0.00 | 34 | 1021.8 |
| 20260502120511 | 22 | 234 | 1.6 | 11.3 | 0.00 | 0.00 | 0.00 | 36 | 1021.9 |
| 20260502115441 | 21 | 219 | 0.0 | 14.5 | 0.00 | 0.00 | 0.00 | 36 | 1021.9 |
| 20260502114937 | 21 | 199 | 0.0 | 11.3 | 0.00 | 0.00 | 0.00 | 35 | 1022.0 |
| 20260502114611 | 21 | 235 | 0.0 | 9.7 | 0.00 | 0.00 | 0.00 | 35 | 1022.2 |
| 20260502114455 | 21 | 235 | 1.6 | 11.3 | 0.00 | 0.00 | 0.00 | 35 | 1022.0 |
| 20260502113437 | 21 | 206 | 0.0 | 9.7 | 0.00 | 0.00 | 0.00 | 36 | 1022.1 |
| 20260502112935 | 21 | 193 | 0.0 | 17.7 | 0.00 | 0.00 | 0.00 | 36 | 1022.2 |
| 20260502112434 | 21 | 210 | 6.4 | 17.7 | 0.00 | 0.00 | 0.00 | 35 | 1022.3 |
| 20260502111935 | 21 | 152 | 0.0 | 17.7 | 0.00 | 0.00 | 0.00 | 36 | 1022.3 |
| 20260502111630 | 21 | 190 | 4.8 | 16.1 | 0.00 | 0.00 | 0.00 | 37 | 1022.4 |
| 20260502111458 | 21 | 188 | 0.0 | 17.7 | 0.00 | 0.00 | 0.00 | 36 | 1022.3 |
| 20260502110432 | 21 | 206 | 1.6 | 16.1 | 0.00 | 0.00 | 0.00 | 35 | 1022.4 |
| 20260502105932 | 21 | 141 | 1.6 | 16.1 | 0.00 | 0.00 | 0.00 | 36 | 1022.5 |
| 20260502105435 | 21 | 235 | 4.8 | 16.1 | 0.00 | 0.00 | 0.00 | 37 | 1022.6 |
| 20260502104931 | 20 | 197 | 1.6 | 16.1 | 0.00 | 0.00 | 0.00 | 38 | 1022.6 |
| 20260502104431 | 20 | 228 | 0.0 | 16.1 | 0.00 | 0.00 | 0.00 | 37 | 1022.7 |
| 20260502103926 | 20 | 197 | 0.0 | 16.1 | 0.00 | 0.00 | 0.00 | 36 | 1022.8 |
| 20260502103425 | 20 | 279 | 0.0 | 11.3 | 0.00 | 0.00 | 0.00 | 37 | 1022.9 |
| 20260502102921 | 20 | 210 | 0.0 | 17.7 | 0.00 | 0.00 | 0.00 | 38 | 1022.8 |
| 20260502102422 | 20 | 255 | 1.6 | 17.7 | 0.00 | 0.00 | 0.00 | 36 | 1022.9 |
| 20260502101921 | 20 | 250 | 0.0 | 11.3 | 0.00 | 0.00 | 0.00 | 38 | 1022.9 |
| 20260502101419 | 20 | 235 | 1.6 | 16.1 | 0.00 | 0.00 | 0.00 | 36 | 1023.0 |
| 20260502101252 | 20 | 252 | 1.6 | 16.1 | 0.00 | 0.00 | 0.00 | 36 | 1023.0 |
| 20260502101236 | 20 | 223 | 4.8 | 16.1 | 0.00 | 0.00 | 0.00 | 36 | 1023.3 |
| 20260502101003 | 20 | 227 | 1.6 | 16.1 | 0.00 | 0.00 | 0.00 | 37 | 1023.0 |
| 20260502091400 | 20 | 183 | 0.0 | 6.4 | 0.00 | 0.00 | 0.00 | 37 | 1023.6 |
| 20260502090903 | 19 | 197 | 0.0 | 3.2 | 0.00 | 0.00 | 0.00 | 38 | 1023.7 |
| 20260502090359 | 19 | 166 | 0.0 | 0.0 | 0.00 | 0.00 | 0.00 | 39 | 1023.7 |
| 20260502071423 | 16 | 334 | 0.0 | 6.4 | 0.00 | 0.00 | 0.00 | 52 | 1024.4 |
| 20260502070922 | 16 | 316 | 0.0 | 6.4 | 0.00 | 0.00 | 0.00 | 53 | 1024.4 |
| 20260502070421 | 15 | 18 | 1.6 | 4.8 | 0.00 | 0.00 | 0.00 | 53 | 1024.4 |
| 20260502065920 | 15 | 14 | 0.0 | 0.0 | 0.00 | 0.00 | 0.00 | 54 | 1024.4 |
| 20260502065421 | 15 | 0 | 0.0 | 6.4 | 0.00 | 0.00 | 0.00 | 54 | 1024.4 |
| 20260502064919 | 15 | 0 | 0.0 | 6.4 | 0.00 | 0.00 | 0.00 | 54 | 1024.4 |
| 20260502064418 | 15 | 355 | 0.0 | 6.4 | 0.00 | 0.00 | 0.00 | 56 | 1024.5 |
| 20260502063916 | 14 | 345 | 0.0 | 4.8 | 0.00 | 0.00 | 0.00 | 56 | 1024.5 |
| 20260502063418 | 14 | 59 | 0.0 | 4.8 | 0.00 | 0.00 | 0.00 | 56 | 1024.6 |
| 20260502062920 | 13 | 344 | 0.0 | 4.8 | 0.00 | 0.00 | 0.00 | 57 | 1024.6 |
| 20260502062601 | 13 | 334 | 0.0 | 3.2 | 0.00 | 0.00 | 0.00 | 57 | 1024.7 |
| 20260502062442 | 13 | 344 | 0.0 | 4.8 | 0.00 | 0.00 | 0.00 | 56 | 1024.6 |
| 20260502061654 | 13 | 63 | 0.0 | 0.0 | 0.00 | 0.00 | 0.00 | 58 | 1024.7 |
| 20260502060914 | 13 | 87 | 0.0 | 0.0 | 0.00 | 0.00 | 0.00 | 60 | 1024.6 |
| 20260502060412 | 13 | 87 | 0.0 | 0.0 | 0.00 | 0.00 | 0.00 | 59 | 1024.7 |
| 20260502060242 | 12 | 87 | 0.0 | 0.0 | 0.00 | 0.00 | 0.00 | 61 | 1024.7 |
| 20260502060016 | 13 | 87 | 0.0 | 0.0 | 0.00 | 0.00 | 0.00 | 60 | 1024.7 |
| 20260502055435 | 13 | 87 | 0.0 | 0.0 | 0.00 | 0.00 | 0.00 | 59 | 1024.7 |
| 20260502054408 | 12 | 87 | 0.0 | 0.0 | 0.00 | 0.00 | 0.00 | 62 | 1024.7 |
| 20260502054302 | 11 | 87 | 0.0 | 1.6 | 0.00 | 0.00 | 0.00 | 66 | 1024.9 |
| 20260502054016 | 12 | 87 | 0.0 | 0.0 | 0.00 | 0.00 | 0.00 | 64 | 1024.8 |
| 20260502053438 | 11 | 87 | 0.0 | 0.0 | 0.00 | 0.00 | 0.00 | 65 | 1024.8 |
| 20260502052406 | 11 | 89 | 0.0 | 1.6 | 0.00 | 0.00 | 0.00 | 67 | 1024.9 |
| 20260502051902 | 10 | 89 | 0.0 | 0.0 | 0.00 | 0.00 | 0.00 | 69 | 1024.9 |
| 20260502051407 | 10 | 89 | 0.0 | 0.0 | 0.00 | 0.00 | 0.00 | 68 | 1024.8 |
| 20260502051051 | 10 | 89 | 0.0 | 0.0 | 0.00 | 0.00 | 0.00 | 68 | 1024.8 |
| 20260502050923 | 10 | 89 | 0.0 | 0.0 | 0.00 | 0.00 | 0.00 | 68 | 1024.8 |
| 20260502045858 | 10 | 89 | 0.0 | 0.0 | 0.00 | 0.00 | 0.00 | 69 | 1024.8 |
| 20260502045356 | 10 | 89 | 0.0 | 0.0 | 0.00 | 0.00 | 0.00 | 68 | 1024.8 |
| 20260502044857 | 10 | 89 | 0.0 | 0.0 | 0.00 | 0.00 | 0.00 | 67 | 1024.8 |
| 20260502044351 | 10 | 89 | 0.0 | 0.0 | 0.00 | 0.00 | 0.00 | 68 | 1024.7 |
| 20260502043852 | 10 | 89 | 0.0 | 0.0 | 0.00 | 0.00 | 0.00 | 68 | 1024.8 |
| 20260502043351 | 9 | 89 | 0.0 | 0.0 | 0.00 | 0.00 | 0.00 | 69 | 1024.8 |
| 20260502043017 | 8 | 89 | 0.0 | 0.0 | 0.00 | 0.00 | 0.00 | 70 | 1024.8 |
| 20260502042906 | 9 | 89 | 0.0 | 0.0 | 0.00 | 0.00 | 0.00 | 70 | 1024.7 |
| 20260502041847 | 8 | 89 | 0.0 | 0.0 | 0.00 | 0.00 | 0.00 | 71 | 1024.7 |
| 20260502041343 | 8 | 89 | 0.0 | 0.0 | 0.00 | 0.00 | 0.00 | 71 | 1024.7 |
| 20260502040840 | 8 | 89 | 0.0 | 0.0 | 0.00 | 0.00 | 0.00 | 71 | 1024.7 |
| 20260502040720 | 8 | 89 | 0.0 | 0.0 | 0.00 | 0.00 | 0.00 | 72 | 1024.6 |
| 20260502040639 | 8 | 89 | 0.0 | 0.0 | 0.00 | 0.00 | 0.00 | 72 | 1024.7 |
| 20260502040436 | 8 | 89 | 0.0 | 0.0 | 0.00 | 0.00 | 0.00 | 72 | 1024.7 |
| 20260502035021 | 8 | 89 | 0.0 | 0.0 | 0.00 | 0.00 | 0.00 | 72 | 1024.7 |
| 20260502034904 | 8 | 89 | 0.0 | 0.0 | 0.00 | 0.00 | 0.00 | 72 | 1024.7 |
| 20260502033840 | 8 | 87 | 0.0 | 0.0 | 0.00 | 0.00 | 0.00 | 72 | 1024.7 |
| 20260502033337 | 8 | 87 | 0.0 | 0.0 | 0.00 | 0.00 | 0.00 | 72 | 1024.7 |
| 20260502032838 | 8 | 87 | 0.0 | 0.0 | 0.00 | 0.00 | 0.00 | 72 | 1024.8 |
| 20260502032702 | 8 | 87 | 0.0 | 0.0 | 0.00 | 0.00 | 0.00 | 71 | 1024.7 |
| 20260502032617 | 8 | 87 | 0.0 | 0.0 | 0.00 | 0.00 | 0.00 | 70 | 1024.7 |
| 20260502032424 | 8 | 87 | 0.0 | 0.0 | 0.00 | 0.00 | 0.00 | 72 | 1024.7 |
| 20260502030833 | 8 | 87 | 0.0 | 0.0 | 0.00 | 0.00 | 0.00 | 70 | 1024.7 |
| 20260502030329 | 8 | 87 | 0.0 | 0.0 | 0.00 | 0.00 | 0.00 | 70 | 1024.7 |
| 20260502025828 | 8 | 87 | 0.0 | 0.0 | 0.00 | 0.00 | 0.00 | 70 | 1024.8 |
| 20260502025328 | 8 | 87 | 0.0 | 0.0 | 0.00 | 0.00 | 0.00 | 70 | 1024.7 |
| 20260502024825 | 8 | 87 | 0.0 | 0.0 | 0.00 | 0.00 | 0.00 | 70 | 1024.8 |
| 20260502024442 | 9 | 87 | 0.0 | 0.0 | 0.00 | 0.00 | 0.00 | 70 | 1024.9 |
| 20260502024343 | 8 | 87 | 0.0 | 0.0 | 0.00 | 0.00 | 0.00 | 70 | 1024.8 |
| 20260502023323 | 9 | 87 | 0.0 | 0.0 | 0.00 | 0.00 | 0.00 | 70 | 1025.0 |
| 20260502022820 | 9 | 87 | 0.0 | 0.0 | 0.00 | 0.00 | 0.00 | 70 | 1024.9 |
| 20260502022321 | 9 | 87 | 0.0 | 0.0 | 0.00 | 0.00 | 0.00 | 69 | 1024.9 |
| 20260502021814 | 9 | 87 | 0.0 | 0.0 | 0.00 | 0.00 | 0.00 | 69 | 1024.9 |
| 20260502021313 | 9 | 87 | 0.0 | 0.0 | 0.00 | 0.00 | 0.00 | 68 | 1025.0 |
| 20260502020811 | 9 | 87 | 0.0 | 0.0 | 0.00 | 0.00 | 0.00 | 69 | 1025.0 |
| 20260502020311 | 9 | 87 | 0.0 | 0.0 | 0.00 | 0.00 | 0.00 | 69 | 1024.9 |
| 20260502015809 | 9 | 87 | 0.0 | 0.0 | 0.00 | 0.00 | 0.00 | 69 | 1025.0 |
| 20260502015314 | 9 | 87 | 0.0 | 0.0 | 0.00 | 0.00 | 0.00 | 69 | 1025.0 |
| 20260502014946 | 9 | 86 | 0.0 | 0.0 | 0.00 | 0.00 | 0.00 | 68 | 1025.1 |
| 20260502014831 | 9 | 87 | 0.0 | 0.0 | 0.00 | 0.00 | 0.00 | 70 | 1025.0 |
| 20260502013806 | 10 | 86 | 0.0 | 0.0 | 0.00 | 0.00 | 0.00 | 68 | 1025.0 |
| 20260502013308 | 10 | 86 | 0.0 | 0.0 | 0.00 | 0.00 | 0.00 | 67 | 1025.0 |
| 20260502012807 | 10 | 86 | 0.0 | 0.0 | 0.00 | 0.00 | 0.00 | 67 | 1025.1 |
| 20260502012306 | 10 | 86 | 0.0 | 0.0 | 0.00 | 0.00 | 0.00 | 66 | 1025.1 |
| 20260502011807 | 10 | 86 | 0.0 | 0.0 | 0.00 | 0.00 | 0.00 | 65 | 1025.1 |
| 20260502011306 | 10 | 86 | 0.0 | 0.0 | 0.00 | 0.00 | 0.00 | 64 | 1025.1 |
| 20260502010801 | 10 | 86 | 0.0 | 0.0 | 0.00 | 0.00 | 0.00 | 64 | 1025.1 |
| 20260502010302 | 10 | 86 | 0.0 | 0.0 | 0.00 | 0.00 | 0.00 | 64 | 1025.2 |
| 20260502005802 | 10 | 86 | 0.0 | 0.0 | 0.00 | 0.00 | 0.00 | 64 | 1025.1 |
| 20260502005517 | 10 | 86 | 0.0 | 0.0 | 0.00 | 0.00 | 0.00 | 64 | 1025.3 |
| 20260502005328 | 10 | 86 | 0.0 | 0.0 | 0.00 | 0.00 | 0.00 | 64 | 1025.2 |
| 20260502004251 | 10 | 86 | 0.0 | 0.0 | 0.00 | 0.00 | 0.00 | 63 | 1025.2 |
| 20260502003753 | 11 | 86 | 0.0 | 0.0 | 0.00 | 0.00 | 0.00 | 63 | 1025.2 |
| 20260502003252 | 11 | 86 | 0.0 | 0.0 | 0.00 | 0.00 | 0.00 | 62 | 1025.3 |
| 20260502003202 | 11 | 68 | 0.0 | 0.0 | 0.00 | 0.00 | 0.00 | 61 | 1025.3 |
| 20260502002855 | 11 | 87 | 0.0 | 0.0 | 0.00 | 0.00 | 0.00 | 62 | 1025.2 |
| 20260502002316 | 11 | 85 | 0.0 | 0.0 | 0.00 | 0.00 | 0.00 | 62 | 1025.3 |
| 20260502001242 | 11 | 66 | 0.0 | 0.0 | 0.00 | 0.00 | 0.00 | 60 | 1025.2 |
| 20260502000744 | 11 | 66 | 0.0 | 0.0 | 0.00 | 0.00 | 0.00 | 60 | 1025.3 |
| 20260502000248 | 11 | 66 | 0.0 | 0.0 | 0.00 | 0.00 | 0.00 | 60 | 1025.2 |
| 20260501235745 | 11 | 66 | 0.0 | 0.0 | 0.00 | 0.00 | 0.00 | 59 | 1025.2 |
| 20260501235244 | 11 | 59 | 0.0 | 0.0 | 0.00 | 0.00 | 0.00 | 60 | 1025.2 |
| 20260501234742 | 11 | 62 | 0.0 | 3.2 | 0.00 | 0.00 | 0.00 | 59 | 1025.3 |
| 20260501234423 | 11 | 58 | 0.0 | 0.0 | 0.00 | 0.00 | 0.00 | 58 | 1025.3 |
| 20260501234303 | 11 | 62 | 0.0 | 3.2 | 0.00 | 0.00 | 0.00 | 59 | 1025.3 |
| 20260501233236 | 11 | 55 | 0.0 | 0.0 | 0.00 | 0.00 | 0.00 | 57 | 1025.3 |
| 20260501232909 | 11 | 54 | 0.0 | 0.0 | 0.00 | 0.00 | 0.00 | 57 | 1025.2 |